Regional Weather Roundup
Issued by NWS

Home | Current Version | Previous Version | Graphics & Text | Print | Product List | Glossary On
Versions: 1 2 3 4 5 6 7 8 9 10 11 12 13 14 15 16 17 18 19 20 21 22 23 24 25 26 27 28 29 30 31 32 33 34 35 36 37 38 39 40 41 42 43 44 45 46 47 48 49 50
000
ASUS43 KLOT 032300
RWRIL

ILLINOIS REGIONAL WEATHER ROUNDUP
NATIONAL WEATHER SERVICE CHICAGO/ROMEOVILLE IL
500 PM CST TUE MAR 03 2015

NOTE: "FAIR" INDICATES FEW OR NO CLOUDS BELOW 12,000 FEET WITH NO
SIGNIFICANT WEATHER AND/OR OBSTRUCTIONS TO VISIBILITY.

* THESE STATIONS ARE NOT UNDER NWS QUALITY CONTROL. THEY ALSO MAY NOT
  REPORT WEATHER SUCH AS PRECIPITATION OR FOG.

ILZ001-002-007-009-015-016-024-040000-
NORTHWEST ILLINOIS

CITY           SKY/WX    TMP DP  RH WIND       PRES   REMARKS
MOLINE         CLOUDY    34  28  79 W9        29.78R WCI  27
STERLING*      CLOUDY    34  30  86 W12       29.74R WCI  25
$$

ILZ003-004-008-010-011-017-018-040000-
NORTH CENTRAL ILLINOIS

CITY           SKY/WX    TMP DP  RH WIND       PRES   REMARKS
ROCKFORD       CLOUDY    33  27  78 W13       29.71R WCI  24
FREEPORT*      CLOUDY    32  27  81 W8        29.72R WCI  25
$$

ILZ005-006-012>014-019>023-040000-
NORTHEAST ILLINOIS

CITY           SKY/WX    TMP DP  RH WIND       PRES   REMARKS
CHICAGO-OHARE  CLOUDY    34  29  82 W14       29.69R WCI  25
CHICAGO-MIDWAY CLOUDY    36  30  79 W17G23    29.70R WCI  26
AURORA         CLOUDY    34  29  82 W17       29.71R WCI  23
LANSING*       CLOUDY    35  31  86 W14G24    29.71S WCI  26
WAUKEGAN       CLOUDY    33  28  81 W10G18    29.67R WCI  25
DUPAGE AIRPORT CLOUDY    34  29  82 W16G22    29.70R WCI  24
WHEELING       CLOUDY    34  29  82 W12       29.70R WCI  25
NORTHERLY ISL    N/A     35  30  82 W10         N/A  WCI  27
$$

LMZ740>746-040000-
SOUTHERN LAKE MICHIGAN

STATION/POSITION SKY/WX   TEMP    WIND        PRES    VSBY  WAVE
                          AIR SEA DIR/SP/G                  HT/PER
                          (F)     (DEG/KT/KT) (MB)    (MI)  (FT/S)
WAUKEGAN HARBOR            34                   N/A
HARRISON CRIB              35     270/ 21/ 26   N/A
BURNHAM HARBOR             35     270/  9/ 15   N/A
CALUMET HARBOR             36     250/  6/ 14 1004.4R
MICHIGAN CITY              34     230/ 17/ 21   N/A
$$

ILZ025>027-034>036-040-047-049-050-058-095>099-040000-
WEST-CENTRAL ILLINOIS

CITY           SKY/WX    TMP DP  RH WIND       PRES   REMARKS
QUINCY         CLOUDY    36  34  92 NW8       29.82R FOG     WCI  30
MACOMB*        CLOUDY    35  32  90 W10       29.84R WCI  27
$$

ILZ028>032-037-038-041>044-048-051>054-059>061-040000-
CENTRAL ILLINOIS

CITY           SKY/WX    TMP DP  RH WIND       PRES   REMARKS
DECATUR        CLOUDY    39  37  92 W9        29.81R FOG     WCI  33
PEORIA         CLOUDY    38  32  79 W10       29.79S WCI  31
SPRINGFIELD    CLOUDY    37  35  92 W10       29.82R FOG     WCI  30
TAYLORVILLE    NOT AVBL
$$

ILZ033-039-045-046-055>057-062-063-040000-
EAST-CENTRAL ILLINOIS

CITY           SKY/WX    TMP DP  RH WIND       PRES   REMARKS
CHAMPAIGN      CLOUDY    36  34  92 W12       29.78R FOG     WCI  28
MATTOON        CLOUDY    39  38  96 W7        29.80R FOG     WCI  34
$$

ILZ079-100>102-040000-
SOUTHWEST ILLINOIS

CITY           SKY/WX    TMP DP  RH WIND       PRES   REMARKS
ALTON          CLOUDY    39  39 100 W7        29.82F WCI  34
BELLEVILLE     FOG       40  40 100 SE1       29.82R VSB<1/4
CAHOKIA*       CLOUDY    44  43  96 NW5       29.82F
$$

ILZ064>066-069>071-074>076-080>082-084>086-088>090-092>094-040000-
SOUTH-CENTRAL ILLINOIS

CITY           SKY/WX    TMP DP  RH WIND       PRES   REMARKS
CARBONDALE     CLOUDY    44  41  89 SW10      29.85S FOG
MARION         CLOUDY    45  43  93 SW12      29.86R FOG
MT. VERNON     CLOUDY    43  39  87 SW7       29.84R VSB 1/2
$$

ILZ067-068-072-073-078-083-087-091-040000-
SOUTHEAST ILLINOIS

CITY           SKY/WX    TMP DP  RH WIND       PRES   REMARKS
LAWRENCEVILLE  CLOUDY    40  40 100 SW9       29.82S
$$

ABBREVIATIONS USED IN REMARKS
   TC - TEMPERATURE IN CELSIUS
  WCI - WIND CHILL INDEX
   HX - HEAT INDEX
  VSB - VISIBILITY
$$




USA.gov is the U.S. government's official web portal to all federal, state and local government web resources and services.